Location: Newark
(55.2210°S, 154.7030°W)
Time: 04:57:56
(UTC+00:00)

N. Korean satellite - Visible Passes

Search period start: 26 February 2021 00:00
Search period end: 08 March 2021 00:00
Orbit: 451 x 503 km, 97.2° (Epoch: 25 February)

Date Brightness Start Highest point End Pass type
(mag) Time Alt. Az. Time Alt. Az. Time Alt. Az.
26 Feb 10.3 12:54:18 10° ESE 12:55:18 11° SE 12:56:19 10° SE visible
26 Feb 7.2 14:24:09 10° NNE 14:27:51 64° ESE 14:31:38 10° S visible
27 Feb 8.5 13:57:47 10° NE 14:01:15 35° ESE 14:04:44 10° S visible
28 Feb 9.4 13:31:47 10° ENE 13:34:42 22° ESE 13:37:39 10° S visible
01 Mar 10.0 13:06:19 10° E 13:08:15 14° SE 13:10:11 10° SSE visible
01 Mar 6.7 14:37:13 10° NNE 14:40:58 86° ESE 14:44:46 10° SSW visible
02 Mar 7.8 14:10:40 10° NE 14:14:17 47° ESE 14:17:56 10° S visible
03 Mar 9.0 13:44:27 10° ENE 13:47:41 27° ESE 13:50:55 10° S visible
04 Mar 9.8 13:18:40 10° E 13:21:09 17° ESE 13:23:39 10° SSE visible
04 Mar 6.6 14:50:17 10° N 14:54:01 70° WNW 14:57:49 10° SSW visible
05 Mar 10.2 12:53:47 10° ESE 12:54:42 11° SE 12:55:37 10° SE visible
05 Mar 7.2 14:23:33 10° NNE 14:27:16 63° ESE 14:31:01 10° S visible
06 Mar 8.4 13:57:10 10° NE 14:00:36 35° ESE 14:04:03 10° S visible
07 Mar 9.4 13:31:08 10° ENE 13:34:00 21° ESE 13:36:54 10° S visible
07 Mar 6.8 15:03:23 10° N 15:07:02 51° W 15:10:44 10° SSW visible
